Hourly Data Report for July 05, 2022

DRYDEN REGIONAL
ONTARIO
Current Station Operator: NAVCAN

49°49'39.000" N
92°44'39.000" W
412.70 m
6032125
71527
YHD

Download Data

Hourly Data (July 2022)
Hourly Data Report for July 5, 2022
TIME
LST
Temp Definition
°C
Dew Point Definition
°C
Rel Hum Definition
%
Precip. Amount Definition
mm

Wind Dir Definition
10's deg

Wind Spd Definition
km/h
Visibility Definition
km
Stn Press Definition
kPa
Hmdx Definition


Wind Chill Definition


Weather Definition


00:00 16.6 16.4 99 0.2 7 9 8.1 96.45     Rain, Fog
01:00 16.5 16.3 99 0.8 1 11 6.4 96.47     Moderate Rain, Fog
02:00 15.9 15.4 97 1.2 4 15 16.1 96.48     Rain
03:00 15.3 15.0 98 1.2 4 18 9.7 96.48     Rain, Fog
04:00 14.8 14.5 98 1.0 5 13 16.1 96.53     Rain
05:00 14.8 14.3 97 0.5 5 11 16.1 96.57     Rain
06:00 14.9 14.4 97 0.2 4 11 16.1 96.61     LegendNANA
07:00 16.1 14.6 91 0.0 5 15 16.1 96.65     LegendNANA
08:00 16.8 15.1 90 0.0 3 11 16.1 96.68     LegendNANA
09:00 18.4 14.8 79 0.0 5 11 16.1 96.74     LegendNANA
10:00 19.1 13.9 72 0.0 5 18 16.1 96.76     LegendNANA
11:00 19.8 14.6 72 0.0 5 11 16.1 96.79     LegendNANA
12:00 20.7 13.6 63 0.0 7 17 16.1 96.85     LegendNANA
13:00 21.7 13.8 61 0.0 5 18 16.1 96.87 25   LegendNANA
14:00 22.2 12.6 54 0.0 7 9 16.1 96.85 25   LegendNANA
15:00 22.4 12.3 52 0.0 4 15 16.1 96.84 25   LegendNANA
16:00 22.7 11.6 49 0.0 5 17 16.1 96.82 25   LegendNANA
17:00 22.8 11.0 47 0.0 6 15 16.1 96.86 25   LegendNANA
18:00 22.1 11.0 49 0.0 5 13 16.1 96.83     LegendNANA
19:00 21.1 10.6 51 0.0 6 9 16.1 96.79     LegendNANA
20:00 19.3 11.4 60 0.0 6 5 16.1 96.82     LegendNANA
21:00 18.2 12.2 68 0.0 6 8 16.1 96.87     LegendNANA
22:00 16.2 11.0 71 0.0 9 5 16.1 96.94     LegendNANA
23:00 14.8 12.3 85 0.0 6 8 16.1 96.94     LegendNANA

Notes on Data Quality.

Legend

  • E = Estimated
  • M = Missing
  • NA = Not Available*
  • [empty] = Indicates an unobserved value
Date modified: